Helicity
106 135 218 215 113 93 105 105 96 92 75 97 80 50 44 51 56 57 56 66 86 90 90 76 79 72 66 54 60 61 60 50 38 32 18 17 13 23 33 43 19 21 16
124 139 229 213 112 78 90 88 80 60 46 43 55 65 56 46 48 47 44 51 43 56 68 63 78 68 61 61 57 63 70 58 63 64 14 13 15 20 24 15 15 19 33
97 146 227 214 135 103 101 95 88 79 56 51 38 48 53 59 55 55 53 53 53 41 35 40 44 47 55 57 54 53 60 65 75 63 41 23 3 27 31 21 23 22 29
98 132 192 219 143 123 117 109 89 96 81 66 58 57 61 55 49 44 52 56 58 49 47 35 36 44 54 65 64 71 66 76 89 66 42 59 33 49 37 43 34 26 28
59 122 156 227 148 138 124 121 94 91 89 95 88 75 68 57 50 48 48 44 51 56 53 48 46 48 54 59 71 84 95 113 77 12 51 58 69 54 43 48 47 43 41
72 101 124 171 156 160 149 130 109 94 101 97 94 97 83 76 67 60 58 59 65 65 60 56 55 57 63 70 78 102 136 185 128 116 69 94 124 61 60 50 50 56 59
104 117 122 166 158 159 170 155 133 106 118 112 105 96 93 87 81 84 83 77 71 77 85 79 72 68 77 85 96 109 151 228 78 71 82 127 182 64 75 67 65 63 63
129 121 136 163 160 184 194 175 141 126 119 126 118 108 93 91 91 90 106 106 106 99 97 100 104 99 99 111 119 131 168 190 63 68 103 157 223 82 74 89 85 84 80
151 142 127 145 148 155 172 140 142 144 138 128 126 108 100 101 101 114 119 127 129 127 124 125 122 118 104 126 152 167 179 184 56 45 92 166 236 91 83 85 93 97 103
125 125 125 118 118 102 77 105 94 106 113 115 118 122 110 109 119 125 144 157 166 157 156 153 157 160 149 140 179 205 189 217 117 92 103 167 192 136 93 89 88 88 97
106 113 102 105 96 87 67 69 81 97 107 127 135 148 122 85 110 116 157 173 181 185 192 185 188 186 190 189 214 210 220 203 161 96 153 226 175 162 143 131 108 96 95
93 97 106 106 105 97 87 86 80 76 71 77 132 149 138 110 118 119 139 183 189 204 193 195 201 208 190 158 188 222 223 222 221 126 196 341 338 328 325 300 229 223 158
97 102 107 107 114 116 97 83 82 95 88 101 147 184 155 145 155 148 130 128 150 196 178 179 183 163 153 132 165 191 218 241 202 143 177 313 362 349 326 307 307 313 339
121 120 129 128 119 120 96 91 93 91 93 105 142 186 187 169 171 159 136 135 136 158 165 152 159 153 147 134 136 176 206 241 289 149 191 225 288 323 295 305 298 279 266
126 131 137 148 146 151 145 124 121 119 107 100 125 162 179 190 190 156 134 127 123 136 147 139 150 134 121 135 122 166 169 180 239 218 189 200 219 257 279 288 303 254 218
135 142 147 160 155 144 142 135 120 125 124 128 142 168 170 166 166 145 132 145 148 142 143 137 143 127 108 127 119 118 136 124 148 200 142 149 188 216 266 247 262 269 251
147 140 138 136 142 139 132 124 119 115 121 135 140 167 166 166 164 118 102 127 136 120 129 136 126 117 116 137 127 97 146 77 125 115 138 148 127 180 212 215 235 270 255
151 146 142 128 130 133 126 119 117 126 129 137 136 142 150 155 171 126 121 139 127 112 119 130 129 103 117 127 118 88 130 112 110 94 125 143 124 144 179 223 224 248 245
140 130 110 111 122 117 110 92 94 117 126 136 142 146 152 158 171 147 136 154 142 128 135 135 125 87 110 120 93 68 103 87 88 92 125 146 131 133 154 211 236 252 263
154 128 141 152 139 129 108 90 92 112 130 136 144 150 156 151 167 163 141 147 141 124 145 158 135 87 103 84 39 29 57 71 69 67 73 120 118 119 152 161 169 170 244
156 143 136 142 154 153 152 157 155 156 139 147 144 170 175 174 185 179 169 155 165 133 137 154 122 116 140 145 24 26 28 37 48 52 59 87 107 110 152 141 160 127 155
106 93 116 141 135 148 168 176 200 179 192 181 166 185 205 205 217 207 219 205 190 156 157 176 150 88 61 79 43 -3 28 40 87 45 52 78 92 71 128 131 154 132 140
96 83 123 130 134 146 178 175 187 203 183 168 178 189 211 212 215 223 225 210 196 164 150 145 150 126 118 37 57 22 44 50 44 45 50 75 119 80 106 94 119 105 110
77 158 202 161 144 146 137 137 145 188 183 193 186 172 173 183 194 204 228 235 223 183 174 123 95 77 65 103 21 82 35 23 46 66 56 74 120 88 110 86 95 82 77
130 237 237 177 151 142 147 162 158 196 226 199 192 182 175 184 194 199 195 194 189 148 117 98 74 80 69 56 58 51 35 17 53 9 36 100 110 72 66 51 74 76 59
91 171 177 148 146 149 155 165 182 213 220 208 199 186 195 186 191 208 202 211 202 178 152 106 73 64 77 82 84 75 51 22 11 -10 -18 32 40 72 67 39 7 38 29
Wind_Speed
33 33 35 38 38 41 42 41 41 41 42 45 48 47 45 46 47 46 47 46 46 47 49 47 46 46 45 45 42 39 37 34 33 32 36 46 48 43 40 37 37 40 47
33 32 34 37 38 39 41 40 41 42 43 44 45 46 47 46 47 47 48 49 49 48 48 47 48 48 47 47 45 42 39 36 37 32 39 44 46 44 43 43 41 40 42
28 30 34 37 37 39 40 41 41 43 44 44 45 45 46 47 47 47 48 48 49 49 48 47 47 47 47 47 46 44 42 40 40 40 42 44 45 44 43 43 42 39 39
28 29 34 37 37 39 40 41 42 43 45 44 44 45 46 47 47 48 48 49 49 50 50 50 49 49 48 47 47 45 43 43 43 43 44 44 45 45 44 43 42 39 38
28 29 34 37 38 38 40 41 42 43 44 44 44 45 46 47 48 48 49 49 49 50 51 51 51 50 50 49 48 46 44 45 45 43 44 45 45 47 45 45 43 40 38
28 30 34 35 38 39 40 41 42 44 44 44 45 45 47 48 49 50 50 51 51 51 50 51 51 51 51 50 49 47 46 47 45 43 44 46 47 46 44 44 44 42 39
29 31 33 34 39 39 40 42 43 44 46 46 47 48 49 49 50 51 52 52 53 53 53 52 51 50 51 51 50 48 47 48 44 43 44 47 49 45 44 44 44 43 40
29 30 33 35 38 40 41 42 44 45 46 48 49 49 50 51 52 52 54 54 54 54 54 54 53 52 51 51 50 49 48 49 44 43 45 46 51 46 44 43 43 43 42
30 32 33 36 38 39 41 41 43 45 47 48 50 50 50 51 53 54 55 56 56 56 55 55 54 53 50 50 51 49 48 48 41 43 45 46 52 45 45 44 43 43 43
29 32 35 37 39 39 39 42 43 46 48 49 50 51 51 52 54 55 57 57 58 56 57 56 54 53 50 50 50 50 47 47 42 43 46 48 48 46 45 45 44 42 42
29 33 34 37 38 39 39 41 43 46 48 50 52 53 53 53 55 55 57 58 58 58 57 56 55 54 52 51 51 49 47 45 42 42 44 49 46 45 46 45 45 44 43
30 32 36 37 39 40 40 42 44 46 48 50 53 54 54 54 55 54 56 58 57 58 57 56 55 54 52 50 50 49 47 44 43 40 43 48 46 47 46 46 45 45 45
30 33 36 38 39 40 41 42 45 47 49 51 54 55 54 53 55 54 55 56 56 57 56 56 55 53 52 50 49 48 46 44 41 39 42 44 46 47 47 46 46 45 48
30 34 36 38 39 41 41 44 45 47 49 51 53 55 54 53 54 54 54 56 56 56 56 55 54 54 51 50 48 45 45 42 41 38 42 44 47 49 48 48 49 49 50
30 33 36 39 41 43 43 44 45 48 49 49 51 53 53 53 54 54 53 54 55 56 55 55 54 53 51 49 47 45 43 42 42 42 43 47 47 48 48 48 50 50 48
29 33 34 38 39 40 43 45 46 47 47 48 50 52 52 52 53 52 52 54 55 55 55 54 54 52 51 48 44 42 43 41 42 43 45 47 47 48 49 50 50 49 48
27 30 34 36 39 40 42 43 44 45 45 47 48 50 51 51 52 51 50 53 55 54 53 53 53 52 50 47 43 41 42 41 43 42 45 47 47 48 50 50 50 50 50
28 31 35 35 37 38 40 41 42 44 44 46 47 48 49 50 51 49 51 52 53 53 53 52 53 53 51 48 45 41 41 41 43 43 46 48 48 49 51 52 50 52 51
29 31 34 35 36 38 38 38 40 42 43 43 45 47 48 49 50 49 50 52 52 52 52 53 53 52 53 50 46 38 40 40 43 43 48 48 50 52 52 52 52 53 55
31 33 34 37 38 39 39 39 39 41 43 42 43 44 46 47 48 48 49 51 50 51 53 54 53 51 54 51 46 38 38 39 42 44 48 49 50 52 53 54 53 54 56
34 35 36 38 40 40 42 43 44 45 43 43 43 45 46 46 47 48 49 50 51 51 53 54 53 53 56 56 45 41 38 38 43 44 46 52 52 53 55 54 55 55 56
34 36 37 39 41 43 44 45 45 44 44 42 41 44 46 47 48 48 50 51 51 51 53 54 54 52 52 55 50 48 50 48 51 46 47 54 55 54 57 56 57 56 57
35 37 38 40 42 43 45 43 43 42 41 42 44 46 47 48 49 49 49 50 51 51 53 54 55 55 56 54 53 51 56 58 60 49 49 55 60 57 59 58 59 57 59
37 35 36 38 41 42 41 43 41 46 46 44 42 42 42 44 47 49 50 50 51 50 52 54 55 55 56 59 55 55 48 52 62 65 58 59 65 61 62 60 62 60 59
36 34 36 37 38 40 42 45 41 44 43 43 44 45 45 45 46 47 48 48 49 49 52 54 55 56 56 57 57 59 57 57 58 64 72 74 66 65 64 62 64 63 60
40 38 39 39 39 40 42 43 43 41 41 42 43 44 45 46 46 49 49 49 49 50 52 54 56 56 57 57 58 58 60 63 67 67 72 78 78 68 70 66 62 64 64
Wind_Direction
277 285 299 311 327 338 344 347 350 350 351 354 1 3 1 2 2 0 360 356 355 357 359 360 358 358 357 357 353 349 347 346 345 338 349 15 16 6 360 353 357 3 22
274 285 296 312 329 337 340 344 346 347 348 350 351 354 358 357 357 359 1 1 360 356 355 354 355 356 355 356 352 348 344 340 342 328 352 24 10 6 4 4 3 2 12
282 287 296 316 330 335 336 341 344 345 346 347 350 350 350 352 352 352 354 355 357 358 355 352 351 352 349 352 352 352 346 341 337 336 355 7 7 0 358 1 4 2 4
296 299 300 316 329 336 337 339 342 344 345 347 349 350 350 351 351 351 350 351 351 352 353 353 352 351 349 348 349 346 344 339 335 347 10 1 359 358 358 357 0 357 358
312 307 304 316 326 336 337 337 339 341 343 344 344 348 348 349 350 349 347 347 346 346 348 347 349 349 348 346 347 345 338 336 343 10 8 356 350 357 3 1 1 356 356
321 317 311 318 325 332 336 336 337 338 339 341 342 342 342 342 344 345 345 344 342 341 341 342 343 345 345 345 344 341 338 336 354 4 1 355 346 358 1 2 1 1 354
325 323 325 329 329 334 336 337 338 338 339 339 340 341 340 339 339 340 340 340 340 338 337 337 337 339 341 343 344 343 340 341 355 356 355 350 339 358 0 359 360 1 357
334 339 333 335 335 340 339 337 338 339 339 339 338 337 340 339 339 338 338 337 336 335 334 334 334 333 336 338 339 341 339 337 353 354 349 346 335 353 358 358 359 358 356
337 335 341 341 336 338 343 343 341 340 339 339 337 336 337 338 338 338 336 336 335 334 333 333 333 333 334 335 335 336 337 340 355 352 348 339 335 350 352 355 357 358 358
345 339 335 337 336 340 343 343 342 340 340 338 338 337 337 337 334 334 334 332 332 331 332 332 331 331 332 332 331 331 334 335 348 348 343 336 338 350 352 349 351 355 356
344 339 339 336 336 337 340 339 340 339 340 339 336 335 335 336 335 335 333 333 332 330 329 329 331 332 331 329 328 330 331 334 342 346 343 338 340 344 348 350 350 352 356
330 335 335 337 335 336 338 338 338 338 338 338 335 332 333 335 335 336 336 334 332 333 332 331 331 331 331 330 328 328 328 330 334 341 338 338 345 348 350 351 349 350 350
328 333 334 334 336 336 335 337 336 335 336 336 335 332 333 335 334 336 337 337 336 334 333 332 331 331 330 330 328 327 327 329 334 338 339 335 335 337 336 338 340 340 341
328 329 333 334 335 336 337 337 337 336 337 337 336 334 333 335 334 335 336 335 336 334 333 332 330 330 331 331 331 330 330 332 334 339 337 337 332 330 330 333 332 331 328
329 331 333 334 336 336 337 337 338 337 338 339 338 337 335 334 333 335 337 337 337 335 334 333 331 331 332 332 334 334 336 337 334 332 331 335 333 334 332 330 330 330 331
331 331 337 337 339 340 338 337 338 337 339 339 340 339 339 338 335 337 337 337 336 336 336 336 334 333 334 333 336 340 341 343 341 336 333 330 332 334 333 331 331 331 331
333 335 333 336 336 336 337 338 338 338 339 338 339 339 339 337 335 336 337 336 335 337 336 336 336 336 334 332 335 341 341 346 343 345 340 336 335 333 333 332 332 331 330
331 330 330 333 334 335 336 337 337 337 337 337 337 337 337 336 336 337 336 335 335 336 336 335 335 333 331 328 329 338 338 341 342 343 340 337 336 334 331 333 332 332 331
330 328 328 330 330 331 335 337 338 337 337 338 337 335 335 335 335 335 336 335 336 337 336 333 332 336 330 325 325 333 338 341 341 339 338 335 336 335 333 333 333 332 331
330 329 329 329 329 330 332 333 334 334 334 336 335 335 335 335 334 334 333 332 335 334 333 332 330 334 333 324 322 328 330 332 338 336 340 336 335 336 332 333 332 331 331
329 328 328 328 328 328 328 327 327 327 330 330 331 331 330 331 333 332 331 331 331 331 331 331 328 328 332 328 322 319 322 328 329 332 334 334 333 334 331 333 332 334 332
330 327 327 326 326 324 324 324 326 325 326 328 330 331 330 329 329 328 327 326 327 327 328 329 329 325 327 334 321 314 308 309 318 325 330 331 329 329 327 330 329 332 332
337 333 331 330 329 328 327 327 326 326 325 323 323 324 327 328 327 327 326 325 324 324 323 324 325 325 320 322 330 317 307 302 307 313 320 324 324 324 323 323 324 328 329
339 341 339 336 333 333 331 327 324 323 320 322 322 323 324 327 327 326 326 324 322 323 322 322 323 322 321 318 316 321 320 314 305 300 308 315 318 320 319 319 321 322 325
351 350 346 341 337 335 333 331 327 325 326 324 321 320 321 322 324 323 323 323 322 323 320 320 321 321 321 318 317 314 311 309 313 302 299 304 312 314 315 315 318 318 321
351 349 344 340 336 334 333 332 329 327 326 324 323 320 319 318 319 320 320 319 320 321 321 319 318 317 317 317 315 314 311 305 305 304 301 302 303 308 308 312 315 316 319